Index of /20260426/WXO-DD/model_rdps/10km/06/026
Name Last modified Size Description
Parent Directory -
20260426T06Z_MSC_RDPS_AbsoluteVorticity_IsbL-0250_RLatLon0.09_PT026H.grib2 2026-04-26 08:48 602K
20260426T06Z_MSC_RDPS_AbsoluteVorticity_IsbL-0500_RLatLon0.09_PT026H.grib2 2026-04-26 08:48 559K
20260426T06Z_MSC_RDPS_AbsoluteVorticity_IsbL-0700_RLatLon0.09_PT026H.grib2 2026-04-26 08:48 617K
20260426T06Z_MSC_RDPS_AbsoluteVorticity_IsbL-0850_RLatLon0.09_PT026H.grib2 2026-04-26 08:48 781K
20260426T06Z_MSC_RDPS_AirTemp_AGL-120m_RLatLon0.09_PT026H.grib2 2026-04-26 08:48 395K
20260426T06Z_MSC_RDPS_AirTemp_AGL-2m_RLatLon0.09_PT026H.grib2 2026-04-26 08:48 637K
20260426T06Z_MSC_RDPS_AirTemp_AGL-40m_RLatLon0.09_PT026H.grib2 2026-04-26 08:48 410K
20260426T06Z_MSC_RDPS_AirTemp_AGL-80m_RLatLon0.09_PT026H.grib2 2026-04-26 08:48 402K
20260426T06Z_MSC_RDPS_AirTemp_IsbL-0001_RLatLon0.09_PT026H.grib2 2026-04-26 08:48 249K
20260426T06Z_MSC_RDPS_AirTemp_IsbL-0005_RLatLon0.09_PT026H.grib2 2026-04-26 08:48 292K
20260426T06Z_MSC_RDPS_AirTemp_IsbL-0010_RLatLon0.09_PT026H.grib2 2026-04-26 08:48 305K
20260426T06Z_MSC_RDPS_AirTemp_IsbL-0020_RLatLon0.09_PT026H.grib2 2026-04-26 08:48 322K
20260426T06Z_MSC_RDPS_AirTemp_IsbL-0030_RLatLon0.09_PT026H.grib2 2026-04-26 08:48 343K
20260426T06Z_MSC_RDPS_AirTemp_IsbL-0050_RLatLon0.09_PT026H.grib2 2026-04-26 08:48 317K
20260426T06Z_MSC_RDPS_AirTemp_IsbL-0100_RLatLon0.09_PT026H.grib2 2026-04-26 08:48 420K
20260426T06Z_MSC_RDPS_AirTemp_IsbL-0150_RLatLon0.09_PT026H.grib2 2026-04-26 08:48 414K
20260426T06Z_MSC_RDPS_AirTemp_IsbL-0175_RLatLon0.09_PT026H.grib2 2026-04-26 08:48 405K
20260426T06Z_MSC_RDPS_AirTemp_IsbL-0200_RLatLon0.09_PT026H.grib2 2026-04-26 08:48 414K
20260426T06Z_MSC_RDPS_AirTemp_IsbL-0225_RLatLon0.09_PT026H.grib2 2026-04-26 08:48 417K
20260426T06Z_MSC_RDPS_AirTemp_IsbL-0250_RLatLon0.09_PT026H.grib2 2026-04-26 08:48 422K
20260426T06Z_MSC_RDPS_AirTemp_IsbL-0275_RLatLon0.09_PT026H.grib2 2026-04-26 08:48 403K
20260426T06Z_MSC_RDPS_AirTemp_IsbL-0300_RLatLon0.09_PT026H.grib2 2026-04-26 08:48 409K
20260426T06Z_MSC_RDPS_AirTemp_IsbL-0350_RLatLon0.09_PT026H.grib2 2026-04-26 08:48 421K
20260426T06Z_MSC_RDPS_AirTemp_IsbL-0400_RLatLon0.09_PT026H.grib2 2026-04-26 08:48 421K
20260426T06Z_MSC_RDPS_AirTemp_IsbL-0450_RLatLon0.09_PT026H.grib2 2026-04-26 08:48 429K
20260426T06Z_MSC_RDPS_AirTemp_IsbL-0500_RLatLon0.09_PT026H.grib2 2026-04-26 08:48 442K
20260426T06Z_MSC_RDPS_AirTemp_IsbL-0550_RLatLon0.09_PT026H.grib2 2026-04-26 08:48 424K
20260426T06Z_MSC_RDPS_AirTemp_IsbL-0600_RLatLon0.09_PT026H.grib2 2026-04-26 08:48 442K
20260426T06Z_MSC_RDPS_AirTemp_IsbL-0650_RLatLon0.09_PT026H.grib2 2026-04-26 08:48 456K
20260426T06Z_MSC_RDPS_AirTemp_IsbL-0700_RLatLon0.09_PT026H.grib2 2026-04-26 08:48 479K
20260426T06Z_MSC_RDPS_AirTemp_IsbL-0750_RLatLon0.09_PT026H.grib2 2026-04-26 08:48 407K
20260426T06Z_MSC_RDPS_AirTemp_IsbL-0800_RLatLon0.09_PT026H.grib2 2026-04-26 08:48 458K
20260426T06Z_MSC_RDPS_AirTemp_IsbL-0850_RLatLon0.09_PT026H.grib2 2026-04-26 08:48 504K
20260426T06Z_MSC_RDPS_AirTemp_IsbL-0875_RLatLon0.09_PT026H.grib2 2026-04-26 08:48 515K
20260426T06Z_MSC_RDPS_AirTemp_IsbL-0900_RLatLon0.09_PT026H.grib2 2026-04-26 08:48 519K
20260426T06Z_MSC_RDPS_AirTemp_IsbL-0925_RLatLon0.09_PT026H.grib2 2026-04-26 08:48 528K
20260426T06Z_MSC_RDPS_AirTemp_IsbL-0950_RLatLon0.09_PT026H.grib2 2026-04-26 08:48 521K
20260426T06Z_MSC_RDPS_AirTemp_IsbL-0970_RLatLon0.09_PT026H.grib2 2026-04-26 08:48 520K
20260426T06Z_MSC_RDPS_AirTemp_IsbL-0985_RLatLon0.09_PT026H.grib2 2026-04-26 08:48 526K
20260426T06Z_MSC_RDPS_AirTemp_IsbL-1000_RLatLon0.09_PT026H.grib2 2026-04-26 08:48 497K
20260426T06Z_MSC_RDPS_AirTemp_IsbL-1015_RLatLon0.09_PT026H.grib2 2026-04-26 08:48 490K
20260426T06Z_MSC_RDPS_Albedo_Sfc_RLatLon0.09_PT026H.grib2 2026-04-26 08:48 165K
20260426T06Z_MSC_RDPS_CAPE_Sfc_RLatLon0.09_PT026H.grib2 2026-04-26 08:48 1.6M
20260426T06Z_MSC_RDPS_CIN_Sfc_RLatLon0.09_PT026H.grib2 2026-04-26 08:48 1.1M
20260426T06Z_MSC_RDPS_CloudWater_EAtm_RLatLon0.09_PT026H.grib2 2026-04-26 08:48 217K
20260426T06Z_MSC_RDPS_ConvectivePrecip-Accum_Sfc_RLatLon0.09_PT026H.grib2 2026-04-26 08:48 875K
20260426T06Z_MSC_RDPS_DewPointDepression_AGL-2m_RLatLon0.09_PT026H.grib2 2026-04-26 08:48 389K
20260426T06Z_MSC_RDPS_DewPointDepression_IsbL-0001_RLatLon0.09_PT026H.grib2 2026-04-26 08:48 193
20260426T06Z_MSC_RDPS_DewPointDepression_IsbL-0005_RLatLon0.09_PT026H.grib2 2026-04-26 08:48 193
20260426T06Z_MSC_RDPS_DewPointDepression_IsbL-0010_RLatLon0.09_PT026H.grib2 2026-04-26 08:48 193
20260426T06Z_MSC_RDPS_DewPointDepression_IsbL-0020_RLatLon0.09_PT026H.grib2 2026-04-26 08:48 193
20260426T06Z_MSC_RDPS_DewPointDepression_IsbL-0030_RLatLon0.09_PT026H.grib2 2026-04-26 08:48 193
20260426T06Z_MSC_RDPS_DewPointDepression_IsbL-0050_RLatLon0.09_PT026H.grib2 2026-04-26 08:48 91K
20260426T06Z_MSC_RDPS_DewPointDepression_IsbL-0100_RLatLon0.09_PT026H.grib2 2026-04-26 08:48 127K
20260426T06Z_MSC_RDPS_DewPointDepression_IsbL-0150_RLatLon0.09_PT026H.grib2 2026-04-26 08:48 150K
20260426T06Z_MSC_RDPS_DewPointDepression_IsbL-0175_RLatLon0.09_PT026H.grib2 2026-04-26 08:48 183K
20260426T06Z_MSC_RDPS_DewPointDepression_IsbL-0200_RLatLon0.09_PT026H.grib2 2026-04-26 08:48 222K
20260426T06Z_MSC_RDPS_DewPointDepression_IsbL-0225_RLatLon0.09_PT026H.grib2 2026-04-26 08:48 261K
20260426T06Z_MSC_RDPS_DewPointDepression_IsbL-0250_RLatLon0.09_PT026H.grib2 2026-04-26 08:48 299K
20260426T06Z_MSC_RDPS_DewPointDepression_IsbL-0275_RLatLon0.09_PT026H.grib2 2026-04-26 08:48 308K
20260426T06Z_MSC_RDPS_DewPointDepression_IsbL-0300_RLatLon0.09_PT026H.grib2 2026-04-26 08:48 327K
20260426T06Z_MSC_RDPS_DewPointDepression_IsbL-0350_RLatLon0.09_PT026H.grib2 2026-04-26 08:48 330K
20260426T06Z_MSC_RDPS_DewPointDepression_IsbL-0400_RLatLon0.09_PT026H.grib2 2026-04-26 08:48 346K
20260426T06Z_MSC_RDPS_DewPointDepression_IsbL-0450_RLatLon0.09_PT026H.grib2 2026-04-26 08:48 356K
20260426T06Z_MSC_RDPS_DewPointDepression_IsbL-0500_RLatLon0.09_PT026H.grib2 2026-04-26 08:48 360K
20260426T06Z_MSC_RDPS_DewPointDepression_IsbL-0550_RLatLon0.09_PT026H.grib2 2026-04-26 08:48 370K
20260426T06Z_MSC_RDPS_DewPointDepression_IsbL-0600_RLatLon0.09_PT026H.grib2 2026-04-26 08:48 380K
20260426T06Z_MSC_RDPS_DewPointDepression_IsbL-0650_RLatLon0.09_PT026H.grib2 2026-04-26 08:48 384K
20260426T06Z_MSC_RDPS_DewPointDepression_IsbL-0700_RLatLon0.09_PT026H.grib2 2026-04-26 08:48 393K
20260426T06Z_MSC_RDPS_DewPointDepression_IsbL-0750_RLatLon0.09_PT026H.grib2 2026-04-26 08:48 418K
20260426T06Z_MSC_RDPS_DewPointDepression_IsbL-0800_RLatLon0.09_PT026H.grib2 2026-04-26 08:48 455K
20260426T06Z_MSC_RDPS_DewPointDepression_IsbL-0850_RLatLon0.09_PT026H.grib2 2026-04-26 08:48 475K
20260426T06Z_MSC_RDPS_DewPointDepression_IsbL-0875_RLatLon0.09_PT026H.grib2 2026-04-26 08:48 472K
20260426T06Z_MSC_RDPS_DewPointDepression_IsbL-0900_RLatLon0.09_PT026H.grib2 2026-04-26 08:48 461K
20260426T06Z_MSC_RDPS_DewPointDepression_IsbL-0925_RLatLon0.09_PT026H.grib2 2026-04-26 08:48 451K
20260426T06Z_MSC_RDPS_DewPointDepression_IsbL-0950_RLatLon0.09_PT026H.grib2 2026-04-26 08:48 440K
20260426T06Z_MSC_RDPS_DewPointDepression_IsbL-0970_RLatLon0.09_PT026H.grib2 2026-04-26 08:48 432K
20260426T06Z_MSC_RDPS_DewPointDepression_IsbL-0985_RLatLon0.09_PT026H.grib2 2026-04-26 08:48 428K
20260426T06Z_MSC_RDPS_DewPointDepression_IsbL-1000_RLatLon0.09_PT026H.grib2 2026-04-26 08:48 423K
20260426T06Z_MSC_RDPS_DewPointDepression_IsbL-1015_RLatLon0.09_PT026H.grib2 2026-04-26 08:48 416K
20260426T06Z_MSC_RDPS_DewPoint_AGL-2m_RLatLon0.09_PT026H.grib2 2026-04-26 08:48 308K
20260426T06Z_MSC_RDPS_DownwardLongwaveRadiationFlux-Accum_Sfc_RLatLon0.09_PT026H.grib2 2026-04-26 08:48 454K
20260426T06Z_MSC_RDPS_DownwardShortwaveRadiationFlux-Accum_NTAtm_RLatLon0.09_PT026H.grib2 2026-04-26 08:48 124K
20260426T06Z_MSC_RDPS_DownwardShortwaveRadiationFlux-Accum_Sfc_RLatLon0.09_PT026H.grib2 2026-04-26 08:48 649K
20260426T06Z_MSC_RDPS_FreezingRain-Accum1h_Sfc_RLatLon0.09_PT026H.grib2 2026-04-26 08:48 47K
20260426T06Z_MSC_RDPS_FreezingRain-Accum_Sfc_RLatLon0.09_PT026H.grib2 2026-04-26 08:48 126K
20260426T06Z_MSC_RDPS_GeopotentialHeight_IsbL-0001_RLatLon0.09_PT026H.grib2 2026-04-26 08:48 267K
20260426T06Z_MSC_RDPS_GeopotentialHeight_IsbL-0005_RLatLon0.09_PT026H.grib2 2026-04-26 08:48 337K
20260426T06Z_MSC_RDPS_GeopotentialHeight_IsbL-0010_RLatLon0.09_PT026H.grib2 2026-04-26 08:48 306K
20260426T06Z_MSC_RDPS_GeopotentialHeight_IsbL-0020_RLatLon0.09_PT026H.grib2 2026-04-26 08:48 305K
20260426T06Z_MSC_RDPS_GeopotentialHeight_IsbL-0030_RLatLon0.09_PT026H.grib2 2026-04-26 08:48 404K
20260426T06Z_MSC_RDPS_GeopotentialHeight_IsbL-0050_RLatLon0.09_PT026H.grib2 2026-04-26 08:48 308K
20260426T06Z_MSC_RDPS_GeopotentialHeight_IsbL-0100_RLatLon0.09_PT026H.grib2 2026-04-26 08:48 288K
20260426T06Z_MSC_RDPS_GeopotentialHeight_IsbL-0150_RLatLon0.09_PT026H.grib2 2026-04-26 08:48 227K
20260426T06Z_MSC_RDPS_GeopotentialHeight_IsbL-0175_RLatLon0.09_PT026H.grib2 2026-04-26 08:48 229K
20260426T06Z_MSC_RDPS_GeopotentialHeight_IsbL-0200_RLatLon0.09_PT026H.grib2 2026-04-26 08:48 232K
20260426T06Z_MSC_RDPS_GeopotentialHeight_IsbL-0225_RLatLon0.09_PT026H.grib2 2026-04-26 08:48 234K
20260426T06Z_MSC_RDPS_GeopotentialHeight_IsbL-0250_RLatLon0.09_PT026H.grib2 2026-04-26 08:48 236K
20260426T06Z_MSC_RDPS_GeopotentialHeight_IsbL-0275_RLatLon0.09_PT026H.grib2 2026-04-26 08:48 235K
20260426T06Z_MSC_RDPS_GeopotentialHeight_IsbL-0300_RLatLon0.09_PT026H.grib2 2026-04-26 08:48 235K
20260426T06Z_MSC_RDPS_GeopotentialHeight_IsbL-0350_RLatLon0.09_PT026H.grib2 2026-04-26 08:48 231K
20260426T06Z_MSC_RDPS_GeopotentialHeight_IsbL-0400_RLatLon0.09_PT026H.grib2 2026-04-26 08:48 227K
20260426T06Z_MSC_RDPS_GeopotentialHeight_IsbL-0450_RLatLon0.09_PT026H.grib2 2026-04-26 08:48 296K
20260426T06Z_MSC_RDPS_GeopotentialHeight_IsbL-0500_RLatLon0.09_PT026H.grib2 2026-04-26 08:48 290K
20260426T06Z_MSC_RDPS_GeopotentialHeight_IsbL-0550_RLatLon0.09_PT026H.grib2 2026-04-26 08:48 286K
20260426T06Z_MSC_RDPS_GeopotentialHeight_IsbL-0600_RLatLon0.09_PT026H.grib2 2026-04-26 08:48 284K
20260426T06Z_MSC_RDPS_GeopotentialHeight_IsbL-0650_RLatLon0.09_PT026H.grib2 2026-04-26 08:48 281K
20260426T06Z_MSC_RDPS_GeopotentialHeight_IsbL-0700_RLatLon0.09_PT026H.grib2 2026-04-26 08:48 279K
20260426T06Z_MSC_RDPS_GeopotentialHeight_IsbL-0750_RLatLon0.09_PT026H.grib2 2026-04-26 08:48 253K
20260426T06Z_MSC_RDPS_GeopotentialHeight_IsbL-0800_RLatLon0.09_PT026H.grib2 2026-04-26 08:48 260K
20260426T06Z_MSC_RDPS_GeopotentialHeight_IsbL-0850_RLatLon0.09_PT026H.grib2 2026-04-26 08:48 267K
20260426T06Z_MSC_RDPS_GeopotentialHeight_IsbL-0875_RLatLon0.09_PT026H.grib2 2026-04-26 08:48 269K
20260426T06Z_MSC_RDPS_GeopotentialHeight_IsbL-0900_RLatLon0.09_PT026H.grib2 2026-04-26 08:48 272K
20260426T06Z_MSC_RDPS_GeopotentialHeight_IsbL-0925_RLatLon0.09_PT026H.grib2 2026-04-26 08:48 275K
20260426T06Z_MSC_RDPS_GeopotentialHeight_IsbL-0950_RLatLon0.09_PT026H.grib2 2026-04-26 08:48 277K
20260426T06Z_MSC_RDPS_GeopotentialHeight_IsbL-0970_RLatLon0.09_PT026H.grib2 2026-04-26 08:48 282K
20260426T06Z_MSC_RDPS_GeopotentialHeight_IsbL-0985_RLatLon0.09_PT026H.grib2 2026-04-26 08:48 288K
20260426T06Z_MSC_RDPS_GeopotentialHeight_IsbL-1000_RLatLon0.09_PT026H.grib2 2026-04-26 08:48 298K
20260426T06Z_MSC_RDPS_GeopotentialHeight_IsbL-1015_RLatLon0.09_PT026H.grib2 2026-04-26 08:48 310K
20260426T06Z_MSC_RDPS_Humidex_Sfc_RLatLon0.09_PT026H.grib2 2026-04-26 08:48 2.4M
20260426T06Z_MSC_RDPS_IcePellets-Accum1h_Sfc_RLatLon0.09_PT026H.grib2 2026-04-26 08:48 6.2K
20260426T06Z_MSC_RDPS_IcePellets-Accum_Sfc_RLatLon0.09_PT026H.grib2 2026-04-26 08:48 25K
20260426T06Z_MSC_RDPS_KIndex_Sfc_RLatLon0.09_PT026H.grib2 2026-04-26 08:48 2.4M
20260426T06Z_MSC_RDPS_LatentHeatNetFlux_Sfc_RLatLon0.09_PT026H.grib2 2026-04-26 08:48 314K
20260426T06Z_MSC_RDPS_LiftedIndex-MU-VT_IsbL-0500_RLatLon0.09_PT026H.grib2 2026-04-26 08:48 2.4M
20260426T06Z_MSC_RDPS_NetLongwaveRadiationFlux-Accum_Sfc_RLatLon0.09_PT026H.grib2 2026-04-26 08:48 597K
20260426T06Z_MSC_RDPS_NetShortwaveRadiationFlux-Accum_Sfc_RLatLon0.09_PT026H.grib2 2026-04-26 08:48 646K
20260426T06Z_MSC_RDPS_PlanetaryBoundaryLayerHeight_Sfc_RLatLon0.09_PT026H.grib2 2026-04-26 08:48 1.1M
20260426T06Z_MSC_RDPS_Precip-Accum1h_Sfc_RLatLon0.09_PT026H.grib2 2026-04-26 08:48 1.4M
20260426T06Z_MSC_RDPS_Precip-Accum_Sfc_RLatLon0.09_PT026H.grib2 2026-04-26 08:48 2.0M
20260426T06Z_MSC_RDPS_PrecipRate_Sfc_RLatLon0.09_PT026H.grib2 2026-04-26 08:48 169K
20260426T06Z_MSC_RDPS_PrecipType-Instant_Sfc_RLatLon0.09_PT026H.grib2 2026-04-26 08:48 597K
20260426T06Z_MSC_RDPS_Pressure-Trend3h_Sfc_RLatLon0.09_PT026H.grib2 2026-04-26 08:48 1.2M
20260426T06Z_MSC_RDPS_Pressure_MSL_RLatLon0.09_PT026H.grib2 2026-04-26 08:48 323K
20260426T06Z_MSC_RDPS_Pressure_PVU-1.5_RLatLon0.09_PT026H.grib2 2026-04-26 08:48 2.3M
20260426T06Z_MSC_RDPS_Pressure_PVU-1_RLatLon0.09_PT026H.grib2 2026-04-26 08:48 2.4M
20260426T06Z_MSC_RDPS_Pressure_PVU-2_RLatLon0.09_PT026H.grib2 2026-04-26 08:48 2.4M
20260426T06Z_MSC_RDPS_Pressure_Sfc_RLatLon0.09_PT026H.grib2 2026-04-26 08:48 499K
20260426T06Z_MSC_RDPS_RadiativeTemp_Sfc_RLatLon0.09_PT026H.grib2 2026-04-26 08:48 305K
20260426T06Z_MSC_RDPS_Rain-Accum1h_Sfc_RLatLon0.09_PT026H.grib2 2026-04-26 08:48 649K
20260426T06Z_MSC_RDPS_Rain-Accum_Sfc_RLatLon0.09_PT026H.grib2 2026-04-26 08:48 1.5M
20260426T06Z_MSC_RDPS_RelativeHumidity_AGL-2m_RLatLon0.09_PT026H.grib2 2026-04-26 08:48 1.0M
20260426T06Z_MSC_RDPS_RelativeHumidity_IsbL-0010_RLatLon0.09_PT026H.grib2 2026-04-26 08:48 634K
20260426T06Z_MSC_RDPS_RelativeHumidity_IsbL-0020_RLatLon0.09_PT026H.grib2 2026-04-26 08:48 657K
20260426T06Z_MSC_RDPS_RelativeHumidity_IsbL-0030_RLatLon0.09_PT026H.grib2 2026-04-26 08:48 544K
20260426T06Z_MSC_RDPS_RelativeHumidity_IsbL-0050_RLatLon0.09_PT026H.grib2 2026-04-26 08:48 376K
20260426T06Z_MSC_RDPS_RelativeHumidity_IsbL-0100_RLatLon0.09_PT026H.grib2 2026-04-26 08:48 270K
20260426T06Z_MSC_RDPS_RelativeHumidity_IsbL-0150_RLatLon0.09_PT026H.grib2 2026-04-26 08:48 406K
20260426T06Z_MSC_RDPS_RelativeHumidity_IsbL-0175_RLatLon0.09_PT026H.grib2 2026-04-26 08:48 475K
20260426T06Z_MSC_RDPS_RelativeHumidity_IsbL-0200_RLatLon0.09_PT026H.grib2 2026-04-26 08:48 552K
20260426T06Z_MSC_RDPS_RelativeHumidity_IsbL-0225_RLatLon0.09_PT026H.grib2 2026-04-26 08:48 618K
20260426T06Z_MSC_RDPS_RelativeHumidity_IsbL-0250_RLatLon0.09_PT026H.grib2 2026-04-26 08:48 691K
20260426T06Z_MSC_RDPS_RelativeHumidity_IsbL-0275_RLatLon0.09_PT026H.grib2 2026-04-26 08:48 718K
20260426T06Z_MSC_RDPS_RelativeHumidity_IsbL-0300_RLatLon0.09_PT026H.grib2 2026-04-26 08:48 763K
20260426T06Z_MSC_RDPS_RelativeHumidity_IsbL-0350_RLatLon0.09_PT026H.grib2 2026-04-26 08:48 783K
20260426T06Z_MSC_RDPS_RelativeHumidity_IsbL-0400_RLatLon0.09_PT026H.grib2 2026-04-26 08:48 799K
20260426T06Z_MSC_RDPS_RelativeHumidity_IsbL-0450_RLatLon0.09_PT026H.grib2 2026-04-26 08:48 811K
20260426T06Z_MSC_RDPS_RelativeHumidity_IsbL-0500_RLatLon0.09_PT026H.grib2 2026-04-26 08:48 819K
20260426T06Z_MSC_RDPS_RelativeHumidity_IsbL-0550_RLatLon0.09_PT026H.grib2 2026-04-26 08:48 834K
20260426T06Z_MSC_RDPS_RelativeHumidity_IsbL-0600_RLatLon0.09_PT026H.grib2 2026-04-26 08:48 860K
20260426T06Z_MSC_RDPS_RelativeHumidity_IsbL-0650_RLatLon0.09_PT026H.grib2 2026-04-26 08:48 865K
20260426T06Z_MSC_RDPS_RelativeHumidity_IsbL-0700_RLatLon0.09_PT026H.grib2 2026-04-26 08:48 898K
20260426T06Z_MSC_RDPS_RelativeHumidity_IsbL-0750_RLatLon0.09_PT026H.grib2 2026-04-26 08:48 942K
20260426T06Z_MSC_RDPS_RelativeHumidity_IsbL-0800_RLatLon0.09_PT026H.grib2 2026-04-26 08:48 1.0M
20260426T06Z_MSC_RDPS_RelativeHumidity_IsbL-0850_RLatLon0.09_PT026H.grib2 2026-04-26 08:48 1.0M
20260426T06Z_MSC_RDPS_RelativeHumidity_IsbL-0875_RLatLon0.09_PT026H.grib2 2026-04-26 08:48 1.1M
20260426T06Z_MSC_RDPS_RelativeHumidity_IsbL-0900_RLatLon0.09_PT026H.grib2 2026-04-26 08:48 1.1M
20260426T06Z_MSC_RDPS_RelativeHumidity_IsbL-0925_RLatLon0.09_PT026H.grib2 2026-04-26 08:48 1.1M
20260426T06Z_MSC_RDPS_RelativeHumidity_IsbL-0950_RLatLon0.09_PT026H.grib2 2026-04-26 08:48 1.1M
20260426T06Z_MSC_RDPS_RelativeHumidity_IsbL-0970_RLatLon0.09_PT026H.grib2 2026-04-26 08:48 1.1M
20260426T06Z_MSC_RDPS_RelativeHumidity_IsbL-0985_RLatLon0.09_PT026H.grib2 2026-04-26 08:48 1.0M
20260426T06Z_MSC_RDPS_RelativeHumidity_IsbL-1000_RLatLon0.09_PT026H.grib2 2026-04-26 08:48 1.0M
20260426T06Z_MSC_RDPS_RelativeHumidity_IsbL-1015_RLatLon0.09_PT026H.grib2 2026-04-26 08:48 1.0M
20260426T06Z_MSC_RDPS_Runoff-Accum_Sfc_RLatLon0.09_PT026H.grib2 2026-04-26 08:48 66K
20260426T06Z_MSC_RDPS_SWEATIndex_Sfc_RLatLon0.09_PT026H.grib2 2026-04-26 08:48 2.4M
20260426T06Z_MSC_RDPS_SeeingIndex_EAtm_RLatLon0.09_PT026H.grib2 2026-04-26 08:48 1.0M
20260426T06Z_MSC_RDPS_SensibleHeatNetFlux_Sfc_RLatLon0.09_PT026H.grib2 2026-04-26 08:48 217K
20260426T06Z_MSC_RDPS_ShowalterIndex_IsbL-0500_RLatLon0.09_PT026H.grib2 2026-04-26 08:48 2.6M
20260426T06Z_MSC_RDPS_SkyTransparencyIndex_EAtm_RLatLon0.09_PT026H.grib2 2026-04-26 08:48 713K
20260426T06Z_MSC_RDPS_Snow-Accum1h_Sfc_RLatLon0.09_PT026H.grib2 2026-04-26 08:48 384K
20260426T06Z_MSC_RDPS_Snow-Accum_Sfc_RLatLon0.09_PT026H.grib2 2026-04-26 08:48 788K
20260426T06Z_MSC_RDPS_SnowDensity_Sfc_RLatLon0.09_PT026H.grib2 2026-04-26 08:48 183K
20260426T06Z_MSC_RDPS_SnowDepth_Sfc_RLatLon0.09_PT026H.grib2 2026-04-26 08:48 731K
20260426T06Z_MSC_RDPS_SoilTemp_DBS-0to10cm_RLatLon0.09_PT026H.grib2 2026-04-26 08:48 220K
20260426T06Z_MSC_RDPS_SoilTemp_Sfc_RLatLon0.09_PT026H.grib2 2026-04-26 08:48 259K
20260426T06Z_MSC_RDPS_SoilVolumetricIceContent_Sfc_RLatLon0.09_PT026H.grib2 2026-04-26 08:48 168K
20260426T06Z_MSC_RDPS_SoilVolumetricWaterContent_DBS-0to10cm_RLatLon0.09_PT026H.grib2 2026-04-26 08:48 258K
20260426T06Z_MSC_RDPS_SoilVolumetricWaterContent_DBS-0to1cm_RLatLon0.09_PT026H.grib2 2026-04-26 08:48 339K
20260426T06Z_MSC_RDPS_SpecificHumidity_AGL-120m_RLatLon0.09_PT026H.grib2 2026-04-26 08:48 482K
20260426T06Z_MSC_RDPS_SpecificHumidity_AGL-2m_RLatLon0.09_PT026H.grib2 2026-04-26 08:48 647K
20260426T06Z_MSC_RDPS_SpecificHumidity_AGL-40m_RLatLon0.09_PT026H.grib2 2026-04-26 08:48 487K
20260426T06Z_MSC_RDPS_SpecificHumidity_AGL-80m_RLatLon0.09_PT026H.grib2 2026-04-26 08:48 483K
20260426T06Z_MSC_RDPS_SpecificHumidity_IsbL-0001_RLatLon0.09_PT026H.grib2 2026-04-26 08:48 335K
20260426T06Z_MSC_RDPS_SpecificHumidity_IsbL-0005_RLatLon0.09_PT026H.grib2 2026-04-26 08:48 359K
20260426T06Z_MSC_RDPS_SpecificHumidity_IsbL-0010_RLatLon0.09_PT026H.grib2 2026-04-26 08:48 400K
20260426T06Z_MSC_RDPS_SpecificHumidity_IsbL-0020_RLatLon0.09_PT026H.grib2 2026-04-26 08:48 391K
20260426T06Z_MSC_RDPS_SpecificHumidity_IsbL-0030_RLatLon0.09_PT026H.grib2 2026-04-26 08:48 480K
20260426T06Z_MSC_RDPS_SpecificHumidity_IsbL-0050_RLatLon0.09_PT026H.grib2 2026-04-26 08:48 475K
20260426T06Z_MSC_RDPS_SpecificHumidity_IsbL-0100_RLatLon0.09_PT026H.grib2 2026-04-26 08:48 447K
20260426T06Z_MSC_RDPS_SpecificHumidity_IsbL-0150_RLatLon0.09_PT026H.grib2 2026-04-26 08:48 356K
20260426T06Z_MSC_RDPS_SpecificHumidity_IsbL-0175_RLatLon0.09_PT026H.grib2 2026-04-26 08:48 445K
20260426T06Z_MSC_RDPS_SpecificHumidity_IsbL-0200_RLatLon0.09_PT026H.grib2 2026-04-26 08:48 561K
20260426T06Z_MSC_RDPS_SpecificHumidity_IsbL-0225_RLatLon0.09_PT026H.grib2 2026-04-26 08:48 559K
20260426T06Z_MSC_RDPS_SpecificHumidity_IsbL-0250_RLatLon0.09_PT026H.grib2 2026-04-26 08:48 557K
20260426T06Z_MSC_RDPS_SpecificHumidity_IsbL-0275_RLatLon0.09_PT026H.grib2 2026-04-26 08:48 472K
20260426T06Z_MSC_RDPS_SpecificHumidity_IsbL-0300_RLatLon0.09_PT026H.grib2 2026-04-26 08:48 542K
20260426T06Z_MSC_RDPS_SpecificHumidity_IsbL-0350_RLatLon0.09_PT026H.grib2 2026-04-26 08:48 531K
20260426T06Z_MSC_RDPS_SpecificHumidity_IsbL-0400_RLatLon0.09_PT026H.grib2 2026-04-26 08:48 515K
20260426T06Z_MSC_RDPS_SpecificHumidity_IsbL-0450_RLatLon0.09_PT026H.grib2 2026-04-26 08:48 573K
20260426T06Z_MSC_RDPS_SpecificHumidity_IsbL-0500_RLatLon0.09_PT026H.grib2 2026-04-26 08:48 510K
20260426T06Z_MSC_RDPS_SpecificHumidity_IsbL-0550_RLatLon0.09_PT026H.grib2 2026-04-26 08:48 563K
20260426T06Z_MSC_RDPS_SpecificHumidity_IsbL-0600_RLatLon0.09_PT026H.grib2 2026-04-26 08:48 629K
20260426T06Z_MSC_RDPS_SpecificHumidity_IsbL-0650_RLatLon0.09_PT026H.grib2 2026-04-26 08:48 670K
20260426T06Z_MSC_RDPS_SpecificHumidity_IsbL-0700_RLatLon0.09_PT026H.grib2 2026-04-26 08:48 590K
20260426T06Z_MSC_RDPS_SpecificHumidity_IsbL-0750_RLatLon0.09_PT026H.grib2 2026-04-26 08:48 649K
20260426T06Z_MSC_RDPS_SpecificHumidity_IsbL-0800_RLatLon0.09_PT026H.grib2 2026-04-26 08:48 734K
20260426T06Z_MSC_RDPS_SpecificHumidity_IsbL-0850_RLatLon0.09_PT026H.grib2 2026-04-26 08:48 801K
20260426T06Z_MSC_RDPS_SpecificHumidity_IsbL-0875_RLatLon0.09_PT026H.grib2 2026-04-26 08:48 820K
20260426T06Z_MSC_RDPS_SpecificHumidity_IsbL-0900_RLatLon0.09_PT026H.grib2 2026-04-26 08:48 830K
20260426T06Z_MSC_RDPS_SpecificHumidity_IsbL-0925_RLatLon0.09_PT026H.grib2 2026-04-26 08:48 831K
20260426T06Z_MSC_RDPS_SpecificHumidity_IsbL-0950_RLatLon0.09_PT026H.grib2 2026-04-26 08:48 827K
20260426T06Z_MSC_RDPS_SpecificHumidity_IsbL-0970_RLatLon0.09_PT026H.grib2 2026-04-26 08:48 816K
20260426T06Z_MSC_RDPS_SpecificHumidity_IsbL-0985_RLatLon0.09_PT026H.grib2 2026-04-26 08:48 810K
20260426T06Z_MSC_RDPS_SpecificHumidity_IsbL-1000_RLatLon0.09_PT026H.grib2 2026-04-26 08:48 665K
20260426T06Z_MSC_RDPS_SpecificHumidity_IsbL-1015_RLatLon0.09_PT026H.grib2 2026-04-26 08:48 658K
20260426T06Z_MSC_RDPS_SpecificHumidity_Sfc_RLatLon0.09_PT026H.grib2 2026-04-26 08:48 291K
20260426T06Z_MSC_RDPS_StormRelativeHelicity_EtaL-10000_RLatLon0.09_PT026H.grib2 2026-04-26 08:48 1.1M
20260426T06Z_MSC_RDPS_StormSeverityIndex_EtaL-10000_RLatLon0.09_PT026H.grib2 2026-04-26 08:48 1.2M
20260426T06Z_MSC_RDPS_Thickness_IsbL-0850to0700_RLatLon0.09_PT026H.grib2 2026-04-26 08:48 175K
20260426T06Z_MSC_RDPS_Thickness_IsbL-1000to0500_RLatLon0.09_PT026H.grib2 2026-04-26 08:48 198K
20260426T06Z_MSC_RDPS_Thickness_IsbL-1000to0850_RLatLon0.09_PT026H.grib2 2026-04-26 08:48 183K
20260426T06Z_MSC_RDPS_TotalCloudCover_Sfc_RLatLon0.09_PT026H.grib2 2026-04-26 08:48 667K
20260426T06Z_MSC_RDPS_TotalTotalsIndex_Sfc_RLatLon0.09_PT026H.grib2 2026-04-26 08:48 2.4M
20260426T06Z_MSC_RDPS_UVIndex-ClearSky_Sfc_RLatLon0.09_PT026H.grib2 2026-04-26 08:48 86K
20260426T06Z_MSC_RDPS_UVIndex_Sfc_RLatLon0.09_PT026H.grib2 2026-04-26 08:48 158K
20260426T06Z_MSC_RDPS_UpwardLongwaveRadiationFlux_NTAtm_RLatLon0.09_PT026H.grib2 2026-04-26 08:48 484K
20260426T06Z_MSC_RDPS_UpwardShortwaveRadiationFlux_NTAtm_RLatLon0.09_PT026H.grib2 2026-04-26 08:48 139K
20260426T06Z_MSC_RDPS_VerticalVelocity_IsbL-0250_RLatLon0.09_PT026H.grib2 2026-04-26 08:48 423K
20260426T06Z_MSC_RDPS_VerticalVelocity_IsbL-0500_RLatLon0.09_PT026H.grib2 2026-04-26 08:48 539K
20260426T06Z_MSC_RDPS_VerticalVelocity_IsbL-0700_RLatLon0.09_PT026H.grib2 2026-04-26 08:48 591K
20260426T06Z_MSC_RDPS_VerticalVelocity_IsbL-0850_RLatLon0.09_PT026H.grib2 2026-04-26 08:48 694K
20260426T06Z_MSC_RDPS_VerticalWindShear_EtaL-6500_RLatLon0.09_PT026H.grib2 2026-04-26 08:48 1.2M
20260426T06Z_MSC_RDPS_WindChill_Sfc_RLatLon0.09_PT026H.grib2 2026-04-26 08:48 1.1M
20260426T06Z_MSC_RDPS_WindDir_AGL-10m_RLatLon0.09_PT026H.grib2 2026-04-26 08:48 1.0M
20260426T06Z_MSC_RDPS_WindDir_AGL-120m_RLatLon0.09_PT026H.grib2 2026-04-26 08:48 607K
20260426T06Z_MSC_RDPS_WindDir_AGL-40m_RLatLon0.09_PT026H.grib2 2026-04-26 08:48 642K
20260426T06Z_MSC_RDPS_WindDir_AGL-80m_RLatLon0.09_PT026H.grib2 2026-04-26 08:48 620K
20260426T06Z_MSC_RDPS_WindDir_IsbL-0001_RLatLon0.09_PT026H.grib2 2026-04-26 08:48 304K
20260426T06Z_MSC_RDPS_WindDir_IsbL-0005_RLatLon0.09_PT026H.grib2 2026-04-26 08:48 362K
20260426T06Z_MSC_RDPS_WindDir_IsbL-0010_RLatLon0.09_PT026H.grib2 2026-04-26 08:48 385K
20260426T06Z_MSC_RDPS_WindDir_IsbL-0020_RLatLon0.09_PT026H.grib2 2026-04-26 08:48 406K
20260426T06Z_MSC_RDPS_WindDir_IsbL-0030_RLatLon0.09_PT026H.grib2 2026-04-26 08:48 422K
20260426T06Z_MSC_RDPS_WindDir_IsbL-0050_RLatLon0.09_PT026H.grib2 2026-04-26 08:48 426K
20260426T06Z_MSC_RDPS_WindDir_IsbL-0100_RLatLon0.09_PT026H.grib2 2026-04-26 08:48 411K
20260426T06Z_MSC_RDPS_WindDir_IsbL-0150_RLatLon0.09_PT026H.grib2 2026-04-26 08:48 405K
20260426T06Z_MSC_RDPS_WindDir_IsbL-0175_RLatLon0.09_PT026H.grib2 2026-04-26 08:48 430K
20260426T06Z_MSC_RDPS_WindDir_IsbL-0200_RLatLon0.09_PT026H.grib2 2026-04-26 08:48 450K
20260426T06Z_MSC_RDPS_WindDir_IsbL-0225_RLatLon0.09_PT026H.grib2 2026-04-26 08:48 452K
20260426T06Z_MSC_RDPS_WindDir_IsbL-0250_RLatLon0.09_PT026H.grib2 2026-04-26 08:48 458K
20260426T06Z_MSC_RDPS_WindDir_IsbL-0275_RLatLon0.09_PT026H.grib2 2026-04-26 08:48 478K
20260426T06Z_MSC_RDPS_WindDir_IsbL-0300_RLatLon0.09_PT026H.grib2 2026-04-26 08:48 474K
20260426T06Z_MSC_RDPS_WindDir_IsbL-0350_RLatLon0.09_PT026H.grib2 2026-04-26 08:48 497K
20260426T06Z_MSC_RDPS_WindDir_IsbL-0400_RLatLon0.09_PT026H.grib2 2026-04-26 08:48 512K
20260426T06Z_MSC_RDPS_WindDir_IsbL-0450_RLatLon0.09_PT026H.grib2 2026-04-26 08:48 524K
20260426T06Z_MSC_RDPS_WindDir_IsbL-0500_RLatLon0.09_PT026H.grib2 2026-04-26 08:48 538K
20260426T06Z_MSC_RDPS_WindDir_IsbL-0550_RLatLon0.09_PT026H.grib2 2026-04-26 08:48 553K
20260426T06Z_MSC_RDPS_WindDir_IsbL-0600_RLatLon0.09_PT026H.grib2 2026-04-26 08:48 583K
20260426T06Z_MSC_RDPS_WindDir_IsbL-0650_RLatLon0.09_PT026H.grib2 2026-04-26 08:48 628K
20260426T06Z_MSC_RDPS_WindDir_IsbL-0700_RLatLon0.09_PT026H.grib2 2026-04-26 08:48 673K
20260426T06Z_MSC_RDPS_WindDir_IsbL-0750_RLatLon0.09_PT026H.grib2 2026-04-26 08:48 727K
20260426T06Z_MSC_RDPS_WindDir_IsbL-0800_RLatLon0.09_PT026H.grib2 2026-04-26 08:48 800K
20260426T06Z_MSC_RDPS_WindDir_IsbL-0850_RLatLon0.09_PT026H.grib2 2026-04-26 08:48 869K
20260426T06Z_MSC_RDPS_WindDir_IsbL-0875_RLatLon0.09_PT026H.grib2 2026-04-26 08:48 890K
20260426T06Z_MSC_RDPS_WindDir_IsbL-0900_RLatLon0.09_PT026H.grib2 2026-04-26 08:48 902K
20260426T06Z_MSC_RDPS_WindDir_IsbL-0925_RLatLon0.09_PT026H.grib2 2026-04-26 08:48 911K
20260426T06Z_MSC_RDPS_WindDir_IsbL-0950_RLatLon0.09_PT026H.grib2 2026-04-26 08:48 911K
20260426T06Z_MSC_RDPS_WindDir_IsbL-0970_RLatLon0.09_PT026H.grib2 2026-04-26 08:48 918K
20260426T06Z_MSC_RDPS_WindDir_IsbL-0985_RLatLon0.09_PT026H.grib2 2026-04-26 08:48 931K
20260426T06Z_MSC_RDPS_WindDir_IsbL-1000_RLatLon0.09_PT026H.grib2 2026-04-26 08:48 950K
20260426T06Z_MSC_RDPS_WindDir_IsbL-1015_RLatLon0.09_PT026H.grib2 2026-04-26 08:48 968K
20260426T06Z_MSC_RDPS_WindGust-Max_AGL-10m_RLatLon0.09_PT026H.grib2 2026-04-26 08:48 962K
20260426T06Z_MSC_RDPS_WindGust-Min_AGL-10m_RLatLon0.09_PT026H.grib2 2026-04-26 08:48 1.0M
20260426T06Z_MSC_RDPS_WindGust_AGL-10m_RLatLon0.09_PT026H.grib2 2026-04-26 08:48 1.0M
20260426T06Z_MSC_RDPS_WindSpeed_AGL-10m_RLatLon0.09_PT026H.grib2 2026-04-26 08:48 852K
20260426T06Z_MSC_RDPS_WindSpeed_AGL-120m_RLatLon0.09_PT026H.grib2 2026-04-26 08:48 556K
20260426T06Z_MSC_RDPS_WindSpeed_AGL-40m_RLatLon0.09_PT026H.grib2 2026-04-26 08:48 551K
20260426T06Z_MSC_RDPS_WindSpeed_AGL-80m_RLatLon0.09_PT026H.grib2 2026-04-26 08:48 558K
20260426T06Z_MSC_RDPS_WindSpeed_IsbL-0001_RLatLon0.09_PT026H.grib2 2026-04-26 08:48 252K
20260426T06Z_MSC_RDPS_WindSpeed_IsbL-0005_RLatLon0.09_PT026H.grib2 2026-04-26 08:48 298K
20260426T06Z_MSC_RDPS_WindSpeed_IsbL-0010_RLatLon0.09_PT026H.grib2 2026-04-26 08:48 312K
20260426T06Z_MSC_RDPS_WindSpeed_IsbL-0020_RLatLon0.09_PT026H.grib2 2026-04-26 08:48 329K
20260426T06Z_MSC_RDPS_WindSpeed_IsbL-0030_RLatLon0.09_PT026H.grib2 2026-04-26 08:48 326K
20260426T06Z_MSC_RDPS_WindSpeed_IsbL-0050_RLatLon0.09_PT026H.grib2 2026-04-26 08:48 357K
20260426T06Z_MSC_RDPS_WindSpeed_IsbL-0100_RLatLon0.09_PT026H.grib2 2026-04-26 08:48 473K
20260426T06Z_MSC_RDPS_WindSpeed_IsbL-0150_RLatLon0.09_PT026H.grib2 2026-04-26 08:48 372K
20260426T06Z_MSC_RDPS_WindSpeed_IsbL-0175_RLatLon0.09_PT026H.grib2 2026-04-26 08:48 399K
20260426T06Z_MSC_RDPS_WindSpeed_IsbL-0200_RLatLon0.09_PT026H.grib2 2026-04-26 08:48 436K
20260426T06Z_MSC_RDPS_WindSpeed_IsbL-0225_RLatLon0.09_PT026H.grib2 2026-04-26 08:48 444K
20260426T06Z_MSC_RDPS_WindSpeed_IsbL-0250_RLatLon0.09_PT026H.grib2 2026-04-26 08:48 448K
20260426T06Z_MSC_RDPS_WindSpeed_IsbL-0275_RLatLon0.09_PT026H.grib2 2026-04-26 08:48 467K
20260426T06Z_MSC_RDPS_WindSpeed_IsbL-0300_RLatLon0.09_PT026H.grib2 2026-04-26 08:48 463K
20260426T06Z_MSC_RDPS_WindSpeed_IsbL-0350_RLatLon0.09_PT026H.grib2 2026-04-26 08:48 457K
20260426T06Z_MSC_RDPS_WindSpeed_IsbL-0400_RLatLon0.09_PT026H.grib2 2026-04-26 08:48 460K
20260426T06Z_MSC_RDPS_WindSpeed_IsbL-0450_RLatLon0.09_PT026H.grib2 2026-04-26 08:48 459K
20260426T06Z_MSC_RDPS_WindSpeed_IsbL-0500_RLatLon0.09_PT026H.grib2 2026-04-26 08:48 575K
20260426T06Z_MSC_RDPS_WindSpeed_IsbL-0550_RLatLon0.09_PT026H.grib2 2026-04-26 08:48 577K
20260426T06Z_MSC_RDPS_WindSpeed_IsbL-0600_RLatLon0.09_PT026H.grib2 2026-04-26 08:48 588K
20260426T06Z_MSC_RDPS_WindSpeed_IsbL-0650_RLatLon0.09_PT026H.grib2 2026-04-26 08:48 609K
20260426T06Z_MSC_RDPS_WindSpeed_IsbL-0700_RLatLon0.09_PT026H.grib2 2026-04-26 08:48 632K
20260426T06Z_MSC_RDPS_WindSpeed_IsbL-0750_RLatLon0.09_PT026H.grib2 2026-04-26 08:48 704K
20260426T06Z_MSC_RDPS_WindSpeed_IsbL-0800_RLatLon0.09_PT026H.grib2 2026-04-26 08:48 757K
20260426T06Z_MSC_RDPS_WindSpeed_IsbL-0850_RLatLon0.09_PT026H.grib2 2026-04-26 08:48 817K
20260426T06Z_MSC_RDPS_WindSpeed_IsbL-0875_RLatLon0.09_PT026H.grib2 2026-04-26 08:48 836K
20260426T06Z_MSC_RDPS_WindSpeed_IsbL-0900_RLatLon0.09_PT026H.grib2 2026-04-26 08:48 850K
20260426T06Z_MSC_RDPS_WindSpeed_IsbL-0925_RLatLon0.09_PT026H.grib2 2026-04-26 08:48 816K
20260426T06Z_MSC_RDPS_WindSpeed_IsbL-0950_RLatLon0.09_PT026H.grib2 2026-04-26 08:48 817K
20260426T06Z_MSC_RDPS_WindSpeed_IsbL-0970_RLatLon0.09_PT026H.grib2 2026-04-26 08:48 864K
20260426T06Z_MSC_RDPS_WindSpeed_IsbL-0985_RLatLon0.09_PT026H.grib2 2026-04-26 08:48 862K
20260426T06Z_MSC_RDPS_WindSpeed_IsbL-1000_RLatLon0.09_PT026H.grib2 2026-04-26 08:48 856K
20260426T06Z_MSC_RDPS_WindSpeed_IsbL-1015_RLatLon0.09_PT026H.grib2 2026-04-26 08:48 850K
20260426T06Z_MSC_RDPS_WindU_AGL-10m_RLatLon0.09_PT026H.grib2 2026-04-26 08:48 387K
20260426T06Z_MSC_RDPS_WindU_AGL-120m_RLatLon0.09_PT026H.grib2 2026-04-26 08:48 422K
20260426T06Z_MSC_RDPS_WindU_AGL-40m_RLatLon0.09_PT026H.grib2 2026-04-26 08:48 426K
20260426T06Z_MSC_RDPS_WindU_AGL-80m_RLatLon0.09_PT026H.grib2 2026-04-26 08:48 424K
20260426T06Z_MSC_RDPS_WindU_IsbL-0001_RLatLon0.09_PT026H.grib2 2026-04-26 08:48 291K
20260426T06Z_MSC_RDPS_WindU_IsbL-0005_RLatLon0.09_PT026H.grib2 2026-04-26 08:48 291K
20260426T06Z_MSC_RDPS_WindU_IsbL-0010_RLatLon0.09_PT026H.grib2 2026-04-26 08:48 302K
20260426T06Z_MSC_RDPS_WindU_IsbL-0020_RLatLon0.09_PT026H.grib2 2026-04-26 08:48 358K
20260426T06Z_MSC_RDPS_WindU_IsbL-0030_RLatLon0.09_PT026H.grib2 2026-04-26 08:48 357K
20260426T06Z_MSC_RDPS_WindU_IsbL-0050_RLatLon0.09_PT026H.grib2 2026-04-26 08:48 385K
20260426T06Z_MSC_RDPS_WindU_IsbL-0100_RLatLon0.09_PT026H.grib2 2026-04-26 08:48 431K
20260426T06Z_MSC_RDPS_WindU_IsbL-0150_RLatLon0.09_PT026H.grib2 2026-04-26 08:48 389K
20260426T06Z_MSC_RDPS_WindU_IsbL-0175_RLatLon0.09_PT026H.grib2 2026-04-26 08:48 414K
20260426T06Z_MSC_RDPS_WindU_IsbL-0200_RLatLon0.09_PT026H.grib2 2026-04-26 08:48 333K
20260426T06Z_MSC_RDPS_WindU_IsbL-0225_RLatLon0.09_PT026H.grib2 2026-04-26 08:48 338K
20260426T06Z_MSC_RDPS_WindU_IsbL-0250_RLatLon0.09_PT026H.grib2 2026-04-26 08:48 339K
20260426T06Z_MSC_RDPS_WindU_IsbL-0275_RLatLon0.09_PT026H.grib2 2026-04-26 08:48 354K
20260426T06Z_MSC_RDPS_WindU_IsbL-0300_RLatLon0.09_PT026H.grib2 2026-04-26 08:48 350K
20260426T06Z_MSC_RDPS_WindU_IsbL-0350_RLatLon0.09_PT026H.grib2 2026-04-26 08:48 360K
20260426T06Z_MSC_RDPS_WindU_IsbL-0400_RLatLon0.09_PT026H.grib2 2026-04-26 08:48 465K
20260426T06Z_MSC_RDPS_WindU_IsbL-0450_RLatLon0.09_PT026H.grib2 2026-04-26 08:48 465K
20260426T06Z_MSC_RDPS_WindU_IsbL-0500_RLatLon0.09_PT026H.grib2 2026-04-26 08:48 465K
20260426T06Z_MSC_RDPS_WindU_IsbL-0550_RLatLon0.09_PT026H.grib2 2026-04-26 08:48 466K
20260426T06Z_MSC_RDPS_WindU_IsbL-0600_RLatLon0.09_PT026H.grib2 2026-04-26 08:48 476K
20260426T06Z_MSC_RDPS_WindU_IsbL-0650_RLatLon0.09_PT026H.grib2 2026-04-26 08:48 494K
20260426T06Z_MSC_RDPS_WindU_IsbL-0700_RLatLon0.09_PT026H.grib2 2026-04-26 08:48 514K
20260426T06Z_MSC_RDPS_WindU_IsbL-0750_RLatLon0.09_PT026H.grib2 2026-04-26 08:48 525K
20260426T06Z_MSC_RDPS_WindU_IsbL-0800_RLatLon0.09_PT026H.grib2 2026-04-26 08:48 573K
20260426T06Z_MSC_RDPS_WindU_IsbL-0850_RLatLon0.09_PT026H.grib2 2026-04-26 08:48 625K
20260426T06Z_MSC_RDPS_WindU_IsbL-0875_RLatLon0.09_PT026H.grib2 2026-04-26 08:48 649K
20260426T06Z_MSC_RDPS_WindU_IsbL-0900_RLatLon0.09_PT026H.grib2 2026-04-26 08:48 651K
20260426T06Z_MSC_RDPS_WindU_IsbL-0925_RLatLon0.09_PT026H.grib2 2026-04-26 08:48 661K
20260426T06Z_MSC_RDPS_WindU_IsbL-0950_RLatLon0.09_PT026H.grib2 2026-04-26 08:48 657K
20260426T06Z_MSC_RDPS_WindU_IsbL-0970_RLatLon0.09_PT026H.grib2 2026-04-26 08:48 656K
20260426T06Z_MSC_RDPS_WindU_IsbL-0985_RLatLon0.09_PT026H.grib2 2026-04-26 08:48 653K
20260426T06Z_MSC_RDPS_WindU_IsbL-1000_RLatLon0.09_PT026H.grib2 2026-04-26 08:48 651K
20260426T06Z_MSC_RDPS_WindU_IsbL-1015_RLatLon0.09_PT026H.grib2 2026-04-26 08:48 648K
20260426T06Z_MSC_RDPS_WindV_AGL-10m_RLatLon0.09_PT026H.grib2 2026-04-26 08:48 435K
20260426T06Z_MSC_RDPS_WindV_AGL-120m_RLatLon0.09_PT026H.grib2 2026-04-26 08:48 422K
20260426T06Z_MSC_RDPS_WindV_AGL-40m_RLatLon0.09_PT026H.grib2 2026-04-26 08:48 426K
20260426T06Z_MSC_RDPS_WindV_AGL-80m_RLatLon0.09_PT026H.grib2 2026-04-26 08:48 424K
20260426T06Z_MSC_RDPS_WindV_IsbL-0001_RLatLon0.09_PT026H.grib2 2026-04-26 08:48 290K
20260426T06Z_MSC_RDPS_WindV_IsbL-0005_RLatLon0.09_PT026H.grib2 2026-04-26 08:48 334K
20260426T06Z_MSC_RDPS_WindV_IsbL-0010_RLatLon0.09_PT026H.grib2 2026-04-26 08:48 303K
20260426T06Z_MSC_RDPS_WindV_IsbL-0020_RLatLon0.09_PT026H.grib2 2026-04-26 08:48 321K
20260426T06Z_MSC_RDPS_WindV_IsbL-0030_RLatLon0.09_PT026H.grib2 2026-04-26 08:48 320K
20260426T06Z_MSC_RDPS_WindV_IsbL-0050_RLatLon0.09_PT026H.grib2 2026-04-26 08:48 350K
20260426T06Z_MSC_RDPS_WindV_IsbL-0100_RLatLon0.09_PT026H.grib2 2026-04-26 08:48 330K
20260426T06Z_MSC_RDPS_WindV_IsbL-0150_RLatLon0.09_PT026H.grib2 2026-04-26 08:48 387K
20260426T06Z_MSC_RDPS_WindV_IsbL-0175_RLatLon0.09_PT026H.grib2 2026-04-26 08:48 319K
20260426T06Z_MSC_RDPS_WindV_IsbL-0200_RLatLon0.09_PT026H.grib2 2026-04-26 08:48 332K
20260426T06Z_MSC_RDPS_WindV_IsbL-0225_RLatLon0.09_PT026H.grib2 2026-04-26 08:48 336K
20260426T06Z_MSC_RDPS_WindV_IsbL-0250_RLatLon0.09_PT026H.grib2 2026-04-26 08:48 338K
20260426T06Z_MSC_RDPS_WindV_IsbL-0275_RLatLon0.09_PT026H.grib2 2026-04-26 08:48 352K
20260426T06Z_MSC_RDPS_WindV_IsbL-0300_RLatLon0.09_PT026H.grib2 2026-04-26 08:48 347K
20260426T06Z_MSC_RDPS_WindV_IsbL-0350_RLatLon0.09_PT026H.grib2 2026-04-26 08:48 356K
20260426T06Z_MSC_RDPS_WindV_IsbL-0400_RLatLon0.09_PT026H.grib2 2026-04-26 08:48 460K
20260426T06Z_MSC_RDPS_WindV_IsbL-0450_RLatLon0.09_PT026H.grib2 2026-04-26 08:48 459K
20260426T06Z_MSC_RDPS_WindV_IsbL-0500_RLatLon0.09_PT026H.grib2 2026-04-26 08:48 459K
20260426T06Z_MSC_RDPS_WindV_IsbL-0550_RLatLon0.09_PT026H.grib2 2026-04-26 08:48 460K
20260426T06Z_MSC_RDPS_WindV_IsbL-0600_RLatLon0.09_PT026H.grib2 2026-04-26 08:48 469K
20260426T06Z_MSC_RDPS_WindV_IsbL-0650_RLatLon0.09_PT026H.grib2 2026-04-26 08:48 489K
20260426T06Z_MSC_RDPS_WindV_IsbL-0700_RLatLon0.09_PT026H.grib2 2026-04-26 08:48 509K
20260426T06Z_MSC_RDPS_WindV_IsbL-0750_RLatLon0.09_PT026H.grib2 2026-04-26 08:48 520K
20260426T06Z_MSC_RDPS_WindV_IsbL-0800_RLatLon0.09_PT026H.grib2 2026-04-26 08:48 566K
20260426T06Z_MSC_RDPS_WindV_IsbL-0850_RLatLon0.09_PT026H.grib2 2026-04-26 08:48 618K
20260426T06Z_MSC_RDPS_WindV_IsbL-0875_RLatLon0.09_PT026H.grib2 2026-04-26 08:48 635K
20260426T06Z_MSC_RDPS_WindV_IsbL-0900_RLatLon0.09_PT026H.grib2 2026-04-26 08:48 646K
20260426T06Z_MSC_RDPS_WindV_IsbL-0925_RLatLon0.09_PT026H.grib2 2026-04-26 08:48 655K
20260426T06Z_MSC_RDPS_WindV_IsbL-0950_RLatLon0.09_PT026H.grib2 2026-04-26 08:48 656K
20260426T06Z_MSC_RDPS_WindV_IsbL-0970_RLatLon0.09_PT026H.grib2 2026-04-26 08:48 654K
20260426T06Z_MSC_RDPS_WindV_IsbL-0985_RLatLon0.09_PT026H.grib2 2026-04-26 08:48 653K
20260426T06Z_MSC_RDPS_WindV_IsbL-1000_RLatLon0.09_PT026H.grib2 2026-04-26 08:48 651K
20260426T06Z_MSC_RDPS_WindV_IsbL-1015_RLatLon0.09_PT026H.grib2 2026-04-26 08:48 785K